Погода в Пензе

Хотите узнать прогноз погоды в Пензе? Тогда Вам сюда: Погода в Пензе

Поиск расширенной информации на нашем сайте:

Полезная информация:

Новости сайта



02.01.2020
Опубликован Долгосрочный прогноз погоды по городам России и ближнего зарубежья на январь 2020 года.
Карты: Прогноз на январь и февраль 2020 года, Сравнение прогнозируемой аномалии приземной температуры воздуха на январь 2020 года по разным моделям.




Погода в Пензе - сегодня

Время (UTC), дата Ветер
(°,м/с) 
Видим.   Явления Облачность Т
(°С)
Тd
(°С)
f(%) Тe
(°С)
Pmin
(гПа)
dP
(гПа)
Po
(мм)
O2
(г/м3)
Тmin Tmax R s Состояние
почвы
03 05.03.21 270 (З) 10 км    10/10 500 м 
[Sc]
-1.4 -3.5 86 -4  1000  1.1  734  298  -1.4      42  равномерный
мокрый или
старый снег
100% 
06 05.03.21 270 (З) 4000 м  слаб. снег  10/10 600 м 
[Sc]
-0.7 -2.7 86 -3  1001.7  1.8  736  297  -1.4         
09 05.03.21 350 (С) 10 км  {снег}  8/3 600 м средняя 
[Sc|Ac As]
-0.4 -5.8 67 -2  1005.4  3.6  738  298           
12 05.03.21 340 (С) 10 км  {снег}  6/6 1000 м 
[Sc]
+0.6 -6.5 59 1007.4  2.1  740  298           
15 05.03.21 280 (З) 10 км    4/0 средняя 
[Ac As]
-2.2 -8 64 -3  1009.7  1.9  741  302    +0.8  0.0     
18 05.03.21 230 (ЮЗ) 10 км    ясно 
-6.2 -9 81 -8  1012  1.9  743  307           
21 05.03.21 250 (З) 10 км    ясно 
-8.6 -12 76 -8  1013.8  1.6  744  311           
00 06.03.21 260 (З) 10 км    6/0 средняя 
[Ac trans]
-9.5 -11.9 83 -9  1014.6  0.7  744  312           
03 06.03.21 240 (ЮЗ) 10 км    3/0 средняя 
[Ac trans]
-12 -13.8 86 -12  1015.4  0.6  745  315  -12      42  равномерный
мокрый или
старый снег
100% 
06 06.03.21 260 (З) 10 км    9/0 средняя, верхняя 
[Ac As|Ci fib]
-10.2 -12.3 85 -10  1016.2  0.9  746  313  -13.3         
09 06.03.21 250 (З) 10 км    9/0 средняя, верхняя 
[Ac As|Ci fib]
-3.7 -9 67 -3  1015.1  -0.6  745  305           
12 06.03.21 230 (ЮЗ) 10 км    9/0 средняя 
[Ac As]
-2.8 -11.1 53 -4  1013.6  -1.3  744  304           
15 06.03.21 220 (ЮЗ) 10 км    5/0 средняя, верхняя 
[Ac As|Ci fib]
-7 -10.2 78 -7  1013.3  -0.7  744  308    -2.6       
18 06.03.21 270 (З) 10 км    9/0 верхняя 
[Ci]
-10.2 -12.3 85 -10  1013.5  744  312           
21 06.03.21 080 (В) 4000 м  слаб. снег  10/0 средняя 
[As op]
-12 -13.6 88 -12  1013.2  743  314           
00 07.03.21 тихо ()   4000 м  слаб. снег  10/0 средняя 
[Ac As]
-11.8 -13.5 87 -12  1013.5  743  314           
03 07.03.21 240 (ЮЗ) 10 км  {снег}  1/0 средняя 
[Ac As]
-13.5 -15.2 87 -17  1014.1  0.5  744  317  -13.6    0.3  43  равномерный
сухой снег
100% 
06 07.03.21 240 (ЮЗ) 10 км  {снег}  3/0 верхняя 
[Ci fib]
-13.2 -15 86 -18  1014.2  -0.1  744  316  -14.7         
09 07.03.21 240 (ЮЗ) 10 км    8/0 верхняя 
[Cs]
-8.8 -12.3 76 -13  1012.4  -1.4  743  310           
12 07.03.21 210 (ЮЗ) 5-10  10 км  позёмок  10/0 верхняя 
[Cs]
-5.3 -10.9 65 -9  1008.2  -3.8  740  305           
15 07.03.21 210 (ЮЗ) 5-11{13}  4000 м  слаб. снег  10/0 средняя 
[As op]
-5.3 -7.5 84 -9  1004.9  -3.2  738  304    -4.8  0.0     
18 07.03.21 220 (ЮЗ) 8-13{14}  4000 м  слаб. снег  10/0 средняя 
[As op]
-4.3 -5.1 94 -9  1000.4  -4.3  734  301           
21 07.03.21 230 (ЮЗ) 9-14{16}  4000 м  слаб. снег  10/0 средняя 
[As trans]
-2.7 -3.6 94 -8  997.6  -2.7  732  298           
00 08.03.21 270 (З) 6{16}  4000 м  слаб. снег  10/8 600 м средняя 
[Sc|As trans]
-2 -6.4 72 -6  998  0.5  733  298           
03 08.03.21 240 (ЮЗ) 5{13}  10 км  {снег}  10/8 720 м средняя 
[Sc|Ac As]
-4.1 -6.1 86 -8  999.4  0.5  734  301  -5.3    0.9  45  равномерный
мокрый или
старый снег
100% 
Время (UTC), дата Ветер
(°,м/с) 
Видим.   Явления Облачность Т
(°С)
Тd
(°С)
f(%) Тe
(°С)
Pmin
(гПа)
dP
(гПа)
Po
(мм)
O2
(г/м3)
Тmin Tmax R s Состояние
почвы

Для получения пояснительной информации подведите курсор к названию столбца.

ПОГОДА в Пензе - архив

Всё, что Вы хотите узнать о погоде в Пензе - удобно и подробно!

Выберите нужную дату (начиная с 1 января 2019* года) и нажмите кнопку "Найти".
Будут отображены архивные сводки погоды по пункту Пенза, начиная с указанной даты.


Отображать данные в формате CSV (для использования в таблицах Excel)


Внимание! Наш архив погоды предназначен исключительно для личного некоммерческого использования в познавательных целях. Если Вам необходимы официальные справки о состоянии погоды (для производственных, юридических, коммерческих и т.п. целей), обращайтесь в органы Росгидромета.

*Примечание: данная дата относится к архиву по метеостанциям СССР (Россия, СНГ, Балтия).
Архив по метеостанциям Зарубежной Европы и Азии (кроме Китая) хранится 10 дней, по другим регионам земного шара (Китай, Африка, Америка, Австралия, Океания) - 1 день.

Пенза - район местоположения метеостанции


Название, широта, долгота, высота метеостанции:
Пенза (Терновка) 53.1°ш. 45°д. 177 м над ур. моря [Российская Федерация]

Дополнительная информация

В oтличие oт бoльшинства пoгoдных сайтoв мы публикуем пoдрoбную метеoинфoрмацию в детальнoм прoфессиoнальнoм фoрмате.

Характеристики температуры и влажнoсти вoздуха измеряются на высoте 2 м в тени вдали oт зданий и деревьев.
Скoрoсть ветра измеряется на высoте 10 м (на урoвне рoста челoвека скoрoсть ветра ниже в 1.5-2 раза). Если метеoстанция нахoдится в гoрoде или в лесу, тo скoрoсть ветра занижена на 2-4 м/с пo сравнению с oткрытым местoм. Скoрoсть ветра над акватoриями крупных рек и oзёр, а также на вершинах хoлмoв на 2-5 м/с выше, чем в oбычных услoвиях.
Атмoсфернoе давление в разных тoчках местнoсти мoжет значительнo oтличаться oт давления на метеoстанции, в зависимoсти oт услoвий рельефа (при пoдъёме на 10 м давление пoнижается примернo на 1 мм рт.ст.).